Orbital Elements at Epoch 2459200.5 (2020-Dec-17.0) TDB
Reference: JPL 15 (heliocentric ecliptic J2000)
Element | Value | Uncertainty (1-sigma) | Units |
e | .1713771985518704 | 4.6006e-08 | |
a | 3.11742192723526 | 2.1755e-08 | au |
q | 2.583166890641509 | 1.3852e-07 | au |
i | 6.227787800382424 | 5.8287e-06 | deg |
node | 9.870671597143136 | 4.5907e-05 | deg |
peri | 102.2638289665296 | 4.9677e-05 | deg |
M | 165.3379252338352 | 1.9262e-05 | deg |
tp | 2458277.159705958674 (2018-Jun-07.65970596) | 0.00010204 | TDB |
period | 2010.44319011966 5.50 | 2.1044e-05 5.762e-08 | d yr |
n | .1790649951061652 | 1.8744e-09 | deg/d |
Q | 3.651676963829012 | 2.5483e-08 | au |
|
| | Orbit Determination Parameters
Additional Information
|